GEFSNGP_500_meanwind_168.txt.gz
Wind_Speed
21 21 21 21 21 21 21 21 21 20 21 22 23 24 25 26 27 28 29 30 31 32 33 35 36 37 38 39 39 40 40 41 42 42 43 43 43 44 44 44 45 45 45 45
24 25 24 24 23 23 23 23 22 22 22 23 25 26 26 28 28 29 31 32 33 34 35 36 38 39 39 40 41 41 42 43 43 44 44 45 45 45 46 46 46 47 47 47
28 27 27 27 25 25 25 25 25 25 25 26 27 28 29 30 30 31 32 33 35 36 37 38 39 40 41 42 42 43 43 44 44 45 45 46 47 47 47 48 48 48 49 50
32 31 32 30 29 28 28 28 29 29 29 29 30 30 31 32 32 33 34 35 36 38 39 40 41 42 42 43 44 44 45 46 46 47 47 47 47 48 48 49 49 50 51 51
35 35 35 33 32 32 32 32 31 32 32 32 32 33 34 34 35 35 36 37 38 39 40 41 42 43 44 45 45 46 46 47 47 48 48 48 48 49 50 50 51 51 52 52
38 38 38 36 35 35 36 36 34 34 34 35 35 35 35 36 37 38 39 40 41 41 42 43 44 45 45 46 46 47 47 48 48 49 49 49 50 50 50 51 52 52 52 52
41 41 41 40 39 38 38 38 38 38 38 38 38 39 39 40 40 41 42 42 43 44 45 45 46 46 46 47 47 47 47 48 48 49 50 50 50 50 51 51 51 51 52 52
43 44 44 43 43 42 42 42 41 42 42 42 42 42 42 43 43 44 44 45 45 46 46 47 47 47 47 48 48 48 48 48 48 49 50 50 51 51 51 52 52 52 52 52
46 47 46 46 46 46 46 45 45 45 45 45 45 45 45 45 46 46 46 47 47 47 47 48 48 49 48 48 48 48 48 49 49 50 50 51 51 51 51 51 51 51 51 51
49 48 48 49 48 48 48 47 47 47 47 47 46 47 47 47 48 48 48 48 48 48 48 48 48 49 49 49 49 49 49 50 50 50 50 51 51 51 51 51 51 51 51 51
51 50 50 49 49 49 48 47 47 47 47 48 48 48 48 49 49 49 49 49 49 49 49 49 49 50 50 50 50 50 50 50 50 50 50 50 50 50 50 50 50 50 50 50
50 49 50 50 49 49 49 49 48 48 48 49 49 50 50 50 50 50 50 50 50 50 50 50 50 50 50 50 50 50 50 50 50 49 49 49 49 49 49 49 49 49 49 49
50 50 50 50 50 50 50 49 49 49 49 50 51 51 51 50 50 51 51 51 50 50 50 50 50 50 50 50 50 50 50 49 49 49 48 48 48 48 48 48 48 48 48 48
50 50 50 49 49 50 50 49 49 49 49 50 50 50 50 49 50 50 50 50 50 49 49 49 49 49 50 50 50 49 49 49 49 49 48 48 48 48 49 48 47 47 47 47
49 48 48 48 48 48 48 48 48 48 48 48 48 48 48 48 48 48 49 49 49 48 48 48 48 48 49 49 49 48 48 48 48 48 48 48 48 48 48 47 47 46 45 45
47 48 48 48 48 48 48 48 47 47 47 47 47 47 48 48 48 48 48 48 48 48 48 48 48 48 48 48 48 47 47 47 47 47 47 48 48 48 47 46 46 45 45 45
46 47 47 47 47 47 47 47 47 47 46 46 46 46 47 47 47 47 47 48 48 48 48 48 48 47 47 47 47 47 47 47 47 48 48 48 48 47 46 46 46 45 45 45
43 43 43 44 44 45 46 46 46 46 46 45 46 46 46 46 46 46 46 46 47 47 47 47 46 46 46 47 47 47 47 47 47 47 47 47 47 46 45 45 45 45 44 44
41 41 42 42 42 43 43 44 44 44 44 44 44 44 44 44 45 45 45 45 45 45 45 46 47 47 47 47 47 47 46 46 45 45 45 45 44 44 44 44 44 44 43 43
39 39 40 40 41 41 40 41 41 42 42 43 44 44 44 44 44 44 44 44 44 44 45 45 46 47 47 47 47 46 45 44 44 43 43 42 42 42 42 42 41 41 40 39
38 38 39 39 40 39 39 40 41 42 42 43 43 43 44 44 44 44 44 44 43 44 45 45 45 46 46 46 45 44 43 43 42 41 41 41 41 40 40 40 39 38 36 34
36 36 37 38 39 39 40 41 42 42 42 43 43 43 44 44 44 44 44 43 43 44 45 45 45 45 45 44 43 42 42 41 41 40 40 39 39 38 38 37 36 34 32 30
35 35 36 36 37 38 39 40 41 42 43 43 43 43 43 43 42 42 42 41 42 43 43 43 43 43 42 42 41 40 40 39 38 38 37 37 36 35 35 34 32 30 29 28
35 35 36 36 37 37 37 38 39 40 41 41 40 40 41 40 40 40 41 40 40 40 40 40 40 40 40 39 39 38 37 36 35 34 33 33 32 32 31 30 29 27 26 25
35 36 36 36 37 37 37 37 38 38 38 38 38 38 38 39 39 38 39 40 39 39 38 38 38 37 37 37 36 35 34 33 32 31 31 30 30 29 28 27 26 25 23 22
36 36 36 37 37 37 37 37 36 35 35 35 34 35 36 37 38 38 38 38 37 37 36 36 35 35 34 34 33 32 31 31 30 29 28 28 27 26 24 23 23 22 21 20
36 36 36 36 36 36 36 35 34 34 33 33 33 33 35 36 36 36 36 35 34 34 33 33 33 32 32 32 31 30 29 28 28 27 26 25 24 23 22 21 20 19 19 19

GEFSNGP_500_meanwind_174.txt.gz
Wind_Speed
25 25 24 24 24 24 24 24 23 22 22 22 24 25 25 25 26 26 27 28 29 31 32 33 34 35 36 37 37 38 39 40 41 42 43 43 43 43 44 44 44 44 45 45
28 28 28 28 27 27 27 28 27 26 25 26 27 27 27 28 28 28 29 31 32 32 33 34 35 37 38 38 39 40 41 41 42 42 43 44 44 45 45 45 45 46 46 47
32 31 32 31 29 30 30 30 31 30 29 29 30 29 30 31 31 32 33 34 34 34 34 36 37 38 39 40 41 41 41 42 43 43 44 44 45 46 47 47 47 47 48 48
36 35 36 34 33 33 33 33 33 33 33 33 33 32 32 33 33 34 34 35 36 36 37 38 39 40 41 41 41 42 43 44 44 45 45 46 46 47 48 48 48 49 49 49
40 40 40 38 36 36 37 36 35 36 36 36 35 35 35 35 36 36 37 38 38 39 39 40 41 42 43 43 44 44 45 45 46 47 47 48 48 48 49 49 50 50 50 51
42 43 43 41 41 40 40 40 38 38 39 39 39 39 39 39 39 40 40 41 41 41 42 43 43 44 45 46 46 47 47 48 48 49 49 49 50 50 50 51 51 51 51 52
44 45 45 44 44 44 43 42 42 41 42 42 42 43 42 41 42 42 43 43 44 44 45 45 46 47 48 48 48 49 49 50 50 50 50 51 51 52 52 52 52 52 52 52
47 48 48 47 47 46 46 45 45 45 44 45 45 45 45 45 45 45 46 47 47 47 47 47 48 48 49 50 50 50 50 50 50 51 51 51 52 52 52 52 52 52 52 52
49 49 49 49 49 49 48 48 48 48 47 48 47 47 48 48 48 49 49 50 50 49 49 50 50 50 51 51 51 51 51 51 52 52 52 52 53 53 52 52 52 52 52 52
51 50 50 51 51 51 50 50 50 50 50 49 49 49 50 50 50 51 51 51 51 51 51 51 51 52 52 52 52 52 52 52 52 52 52 52 52 52 52 52 52 52 52 52
53 52 52 52 51 51 51 51 52 52 52 51 51 51 51 52 52 52 52 51 51 52 52 51 51 52 52 52 51 51 51 51 51 52 51 51 51 51 51 51 51 51 52 52
53 53 53 52 51 51 52 52 53 53 53 53 53 53 52 53 52 52 51 50 50 50 50 50 50 51 51 50 50 50 50 50 50 51 50 50 50 50 50 51 51 51 51 51
53 53 54 53 53 53 53 53 52 52 52 52 52 52 52 51 51 50 49 49 50 50 49 49 50 50 49 49 49 49 49 49 49 49 50 50 50 50 50 50 50 50 50 50
53 53 54 53 53 52 52 52 51 51 51 51 51 51 50 50 49 49 49 49 48 48 48 48 48 48 48 48 49 48 49 49 49 49 50 50 51 51 51 50 49 49 49 49
50 51 52 51 51 51 51 50 50 49 49 49 49 49 49 49 48 48 48 48 48 48 48 48 48 48 48 48 48 48 49 49 49 50 50 50 50 50 50 50 48 47 47 46
48 48 48 49 48 49 49 49 48 48 48 48 48 48 48 48 48 47 48 48 48 48 48 48 48 48 48 48 48 48 49 49 49 49 49 49 49 49 48 48 47 46 46 46
45 46 46 46 47 47 47 47 47 46 46 46 46 46 46 46 46 46 46 47 47 47 47 47 48 48 48 48 48 48 48 49 49 49 49 49 48 48 47 46 46 46 46 46
44 44 44 44 45 45 44 45 45 45 45 44 44 44 45 45 45 46 46 46 46 46 47 47 48 48 48 48 49 48 48 48 49 49 48 48 47 47 46 45 45 45 45 45
42 42 42 43 43 43 43 43 43 43 43 44 44 44 44 45 45 45 46 46 46 47 46 47 48 48 48 48 48 48 48 48 47 47 47 46 46 45 44 44 43 43 43 43
39 39 39 40 41 42 42 42 42 42 42 42 43 43 43 43 44 45 45 45 45 46 47 47 47 47 47 47 48 47 47 47 46 45 45 44 43 42 42 41 40 40 40 40
37 38 39 39 40 40 41 41 42 42 43 43 44 44 44 44 44 45 46 46 45 47 47 46 46 46 46 46 46 45 45 44 44 43 42 41 41 40 39 38 38 38 38 38
35 36 37 37 37 37 38 39 40 41 42 42 43 44 44 45 45 45 46 46 45 45 46 45 45 45 45 44 44 43 42 42 41 41 40 40 39 38 37 37 36 36 36 36
34 35 36 36 37 37 37 37 38 39 40 40 42 43 43 44 44 44 44 43 43 43 44 44 44 43 43 42 41 41 40 40 39 39 38 37 37 36 36 36 35 34 33 33
34 34 35 35 36 36 36 36 37 37 38 39 39 40 41 40 40 40 41 40 40 41 40 41 41 41 40 40 40 40 39 38 37 37 36 36 35 35 34 34 33 31 30 29
35 35 34 34 34 34 35 36 36 36 36 36 36 36 37 37 37 37 37 38 38 38 38 38 38 38 38 38 38 37 37 36 35 35 34 34 33 32 32 30 29 27 26 26
35 35 34 34 34 34 34 34 34 34 35 35 34 35 35 36 36 36 36 36 36 36 36 36 36 36 36 35 35 35 34 34 33 33 32 31 31 30 28 27 26 25 24 24
34 34 34 34 34 34 34 34 34 34 34 34 34 34 34 34 34 35 35 35 35 35 34 34 33 33 33 33 32 32 31 30 30 29 29 28 28 26 25 24 24 23 22 21

GEFSNGP_500_meanwind_180.txt.gz
Wind_Speed
25 25 24 23 23 24 24 24 23 21 21 20 21 22 23 23 23 24 24 25 26 27 29 30 31 32 33 35 36 36 37 38 39 39 39 40 40 41 41 42 43 45 45 46
28 28 28 27 26 26 26 26 26 25 24 23 24 25 25 25 26 27 27 28 28 29 30 31 32 33 35 36 37 38 39 40 41 41 41 42 42 42 43 44 45 46 47 47
32 31 31 31 29 29 29 29 29 28 27 28 28 28 27 28 28 29 30 31 31 32 32 33 34 35 36 37 39 39 40 41 42 43 43 43 44 44 44 45 46 47 47 47
36 35 35 33 32 31 32 31 31 31 30 31 31 31 31 31 32 32 32 32 33 34 34 34 35 36 37 38 39 40 41 42 43 43 44 45 45 46 46 46 46 46 47 47
39 39 38 35 35 35 35 34 34 34 33 34 34 34 34 35 36 36 35 35 35 36 36 37 38 38 39 40 41 42 43 44 45 46 46 46 47 47 47 47 47 47 47 48
41 41 41 38 38 38 38 38 36 36 37 37 37 38 37 38 38 38 37 37 38 38 39 39 40 41 42 43 43 44 45 46 47 47 48 48 48 48 49 49 49 49 49 50
43 43 42 40 40 40 40 40 39 39 39 39 40 40 40 40 40 40 39 40 40 41 41 42 42 43 43 44 44 45 46 47 48 48 49 49 49 50 50 50 50 50 51 51
44 44 44 42 42 42 42 43 43 42 42 42 42 42 42 42 42 42 42 42 42 43 43 44 44 45 46 46 46 47 47 48 49 49 50 50 50 50 51 51 51 51 51 51
45 45 46 45 45 45 45 45 45 45 44 44 44 44 44 44 44 44 45 45 45 45 45 45 46 46 47 47 48 48 48 48 49 50 50 50 50 51 51 52 51 51 51 51
46 45 46 47 47 47 47 47 47 47 46 46 46 46 46 46 46 46 47 47 47 47 47 47 47 47 47 48 48 49 49 49 49 49 49 49 50 50 51 51 51 51 52 52
48 46 47 47 48 49 50 49 48 48 47 47 48 48 48 48 47 48 48 48 48 48 48 48 48 47 48 48 48 48 48 49 49 49 49 49 50 50 50 51 51 51 51 51
49 49 50 49 49 50 50 50 49 49 48 48 48 48 48 48 48 48 48 48 48 48 48 48 47 48 48 48 48 48 48 48 48 48 48 49 49 50 50 51 51 51 51 51
49 49 50 49 49 49 50 50 49 48 48 48 48 48 48 49 48 48 48 48 48 48 48 47 48 48 48 48 48 48 48 48 48 48 48 48 48 49 49 49 50 50 50 51
48 48 49 49 49 49 48 48 48 48 48 47 47 47 47 47 47 48 48 48 48 47 47 47 47 47 47 47 47 47 47 47 47 47 47 47 48 48 49 49 49 49 50 50
47 48 48 48 48 48 48 47 48 48 47 47 46 47 47 47 46 46 46 47 47 47 47 46 46 46 46 46 46 46 46 46 46 47 47 47 48 48 48 48 49 49 49 49
46 46 46 46 46 46 46 46 47 47 47 47 46 46 46 46 46 45 45 45 45 45 45 46 46 46 46 46 46 46 47 47 47 47 48 48 48 48 48 48 48 48 48 48
43 43 44 45 44 44 44 45 45 45 46 46 46 46 46 45 45 45 45 46 46 45 45 46 46 46 46 46 46 46 47 47 47 47 48 47 47 47 47 47 47 47 47 47
40 41 41 42 42 42 42 42 43 44 44 44 44 44 44 45 45 45 45 45 45 45 45 45 46 46 46 46 46 46 46 46 47 47 47 47 47 47 46 46 46 46 45 44
38 39 39 39 39 39 40 41 41 42 42 42 42 43 43 44 44 44 45 45 44 44 44 44 45 45 45 45 46 46 46 47 47 47 47 46 46 45 45 44 44 44 43 42
37 37 38 38 38 38 38 38 39 39 40 40 40 41 41 41 42 43 43 43 43 43 43 43 43 44 44 45 45 45 45 45 45 45 45 44 44 43 43 42 42 41 40 40
35 36 36 37 37 37 37 37 37 37 37 38 38 38 39 40 41 41 42 41 41 42 42 43 43 43 44 44 44 43 43 43 43 43 42 42 41 41 40 40 39 39 38 38
34 34 34 35 35 36 36 37 37 37 37 37 37 37 38 38 39 40 40 40 40 41 41 41 41 41 41 42 42 42 41 41 41 40 40 40 39 39 38 38 37 37 37 36
34 34 34 34 34 35 35 35 35 36 36 36 36 37 37 37 37 37 37 38 39 39 39 39 40 40 40 40 40 40 40 39 39 39 39 39 39 38 36 36 36 35 34 33
33 33 33 34 34 34 33 33 33 33 34 34 34 34 35 35 36 36 36 36 37 37 37 38 38 39 39 39 39 39 38 38 38 38 37 37 37 35 34 34 33 33 32 31
31 31 32 32 32 32 32 32 32 32 33 32 32 33 34 34 33 33 34 35 35 36 36 36 36 36 36 37 37 37 37 36 36 35 35 34 33 33 32 32 32 31 31 30
30 30 30 31 31 31 31 31 31 32 33 32 32 33 33 34 34 34 34 34 34 34 34 33 33 34 34 35 35 34 34 33 33 32 32 31 31 30 30 30 29 29 28 28
29 29 28 28 29 30 30 30 31 32 32 32 32 32 33 33 33 33 33 32 32 33 33 33 33 33 33 33 32 32 31 31 30 30 29 28 28 27 27 26 26 26 25 25

GEFSNGP_500_meanwind_186.txt.gz
Wind_Speed
31 31 30 28 28 28 28 27 27 25 24 23 24 25 24 24 24 24 25 26 27 28 29 30 30 31 33 34 34 35 36 37 37 38 38 39 41 41 41 42 43 44 45 45
33 33 34 32 31 30 30 30 29 28 26 25 26 27 27 26 26 26 27 28 29 30 31 32 32 33 34 35 35 37 37 38 38 39 40 40 41 42 42 43 43 43 44 45
36 35 37 36 33 33 32 32 31 30 28 28 28 29 29 28 28 28 29 29 31 32 33 34 35 36 37 37 37 38 39 39 39 40 40 41 41 42 43 43 43 44 44 45
39 38 40 37 36 36 35 34 33 32 31 31 31 31 31 31 31 31 31 31 32 33 34 35 37 38 39 40 40 40 40 40 40 41 42 42 43 43 43 44 44 45 46 46
41 41 41 38 38 37 37 37 35 35 34 34 34 33 33 33 33 33 33 33 34 35 36 37 38 38 39 40 41 41 41 41 41 42 43 43 44 44 45 45 46 47 47 47
42 42 42 41 41 40 39 39 37 37 36 36 35 35 34 34 34 35 35 36 36 36 37 37 38 39 39 40 40 41 41 41 42 43 43 44 45 46 46 46 47 47 48 48
44 44 44 43 43 42 42 41 39 39 39 38 38 38 37 37 37 37 37 38 38 38 38 38 39 39 39 40 41 42 42 43 43 44 45 45 46 47 47 47 48 48 49 49
44 45 44 43 43 43 44 43 42 42 41 41 41 40 40 40 40 39 39 40 40 40 40 40 41 41 42 42 43 43 44 44 45 45 46 47 47 48 48 48 48 48 49 49
46 46 45 45 44 44 44 44 43 43 43 43 42 42 42 42 42 41 42 42 42 42 43 43 43 43 44 44 45 45 45 46 46 46 47 48 48 48 48 48 49 49 49 49
48 46 46 46 47 47 46 45 45 44 44 44 44 44 44 44 44 43 43 44 44 44 44 44 44 45 45 45 45 46 46 47 47 47 47 47 48 48 49 49 49 49 49 50
50 48 48 48 48 49 48 47 47 46 45 45 45 45 45 45 45 46 46 46 46 46 45 46 46 46 46 46 47 47 48 48 47 47 47 47 48 48 49 49 49 50 51 51
49 49 50 49 49 49 49 49 49 48 47 47 47 46 46 46 47 47 48 48 48 48 47 47 47 47 47 48 48 48 48 48 47 47 47 48 48 48 48 50 50 51 52 52
49 49 50 49 49 48 48 49 49 49 49 48 48 48 48 48 48 48 48 49 49 49 49 49 49 49 49 49 49 49 48 48 47 48 48 48 48 49 49 49 50 51 51 51
48 49 49 49 48 48 48 47 48 48 48 48 48 47 47 47 48 48 48 48 49 49 49 50 50 50 50 50 49 49 48 48 48 48 48 48 49 49 49 49 49 49 50 51
46 47 48 48 48 48 47 47 47 46 46 46 46 46 46 46 46 47 47 47 47 48 48 49 49 50 50 49 49 48 48 48 48 48 48 48 48 48 48 49 49 49 50 50
44 44 44 45 45 46 46 46 46 45 44 44 45 45 45 45 45 46 46 46 46 47 47 48 48 49 49 48 48 47 47 47 47 47 47 47 47 47 48 49 49 50 50 49
41 41 42 41 42 43 43 43 43 44 44 44 44 44 44 44 44 45 45 46 47 47 47 47 47 47 47 47 47 47 47 47 47 47 47 47 47 48 48 49 49 49 48 48
39 39 39 40 40 41 41 42 42 43 43 43 44 44 44 44 44 44 45 45 46 46 45 46 46 45 45 46 46 46 47 47 47 47 47 48 48 48 48 48 48 48 47 47
37 38 38 38 39 39 39 39 40 41 42 42 43 43 43 44 44 44 45 45 44 44 43 44 44 44 44 45 45 46 46 47 47 48 48 48 47 47 47 47 46 46 46 45
35 36 36 36 37 37 38 38 39 40 41 42 42 42 43 43 43 44 44 44 43 43 43 44 44 44 44 44 44 45 46 46 46 46 46 46 45 45 44 44 44 43 43 43
33 34 35 36 37 38 38 38 38 39 39 40 40 41 41 42 42 42 43 42 42 43 43 43 43 43 42 43 43 43 44 44 43 43 42 42 42 42 42 42 42 41 41 41
32 32 33 34 35 36 36 36 37 37 38 39 39 39 40 39 40 40 40 40 41 41 41 41 41 41 41 41 41 41 41 40 40 39 39 39 39 39 39 39 39 39 39 39
31 32 32 32 33 33 33 34 35 36 37 37 38 38 38 38 38 38 37 38 39 39 39 39 40 40 40 40 40 39 39 38 38 38 38 37 37 37 37 37 37 37 36 36
32 32 32 32 33 33 34 34 34 34 34 34 35 35 36 36 36 36 37 37 37 36 37 37 38 38 38 38 38 38 38 37 37 37 37 37 37 36 36 35 35 35 34 33
32 32 32 32 33 33 33 32 32 32 31 31 31 32 33 33 33 33 34 34 34 35 35 36 36 37 37 37 37 36 36 36 36 36 36 35 34 34 34 33 33 33 33 32
31 32 32 32 31 30 30 30 30 30 31 30 31 32 32 32 32 32 32 33 33 33 34 34 35 35 35 35 35 35 35 35 35 35 34 33 33 33 32 32 32 32 31 31
29 29 29 29 29 30 29 29 29 29 30 30 30 30 31 31 31 31 31 31 31 32 32 32 33 33 33 32 33 33 33 33 33 33 32 32 31 31 30 30 30 30 29 29

GEFSNGP_500_meanwind_192.txt.gz
Wind_Speed
32 31 31 30 30 30 30 29 30 28 28 26 25 25 24 24 24 23 23 23 25 26 26 27 29 30 31 32 34 35 37 37 36 37 37 37 39 39 39 40 40 41 42 42
36 34 34 33 31 31 31 30 31 30 29 27 27 27 26 26 26 25 24 25 25 26 27 28 29 31 31 33 33 35 36 36 37 38 38 39 39 40 40 41 42 42 43 43
38 37 37 36 32 32 32 31 31 31 30 29 29 28 28 28 27 27 27 26 27 27 28 29 30 31 32 32 33 35 36 37 38 38 38 40 41 41 42 42 43 44 44 45
40 39 40 36 35 33 33 32 32 32 31 32 32 30 30 29 29 28 28 28 28 29 30 31 32 32 33 33 34 35 36 37 38 38 39 41 42 44 44 45 45 45 45 45
41 41 41 39 37 36 35 35 33 33 33 33 33 33 32 31 31 30 30 31 30 30 31 32 33 33 34 34 35 36 36 37 38 39 40 41 42 43 44 45 45 45 46 46
41 42 42 40 39 38 38 38 35 35 35 35 35 35 34 33 33 33 32 32 31 32 32 32 32 32 33 34 35 36 37 38 39 40 41 42 42 43 44 45 45 45 46 46
41 42 42 41 39 39 39 38 37 37 37 36 36 35 35 35 34 34 33 33 33 33 32 33 33 33 33 34 35 36 37 38 39 40 41 42 42 43 43 44 44 44 45 45
41 42 41 40 40 40 40 40 39 38 38 37 37 36 36 36 35 34 34 34 34 34 34 34 34 35 35 36 37 38 39 39 39 41 41 42 42 42 42 43 43 44 44 45
42 41 41 41 41 41 41 40 40 39 38 38 37 37 36 36 36 36 35 35 36 36 35 35 36 36 37 37 38 38 39 40 41 42 43 43 43 43 44 44 44 45 46 46
42 41 41 41 41 41 41 41 40 40 39 38 38 38 37 37 37 37 37 37 37 37 37 37 37 38 39 39 39 40 41 42 42 43 43 44 44 44 45 45 45 45 45 46
41 41 42 42 42 42 43 42 42 41 40 39 39 38 38 38 39 39 39 38 39 40 40 40 40 40 40 40 40 41 42 43 43 43 44 44 45 45 45 45 45 45 45 46
42 41 42 42 42 43 43 43 43 43 42 42 41 40 39 39 40 41 41 41 41 41 41 41 42 42 42 42 42 42 42 43 43 44 44 44 45 45 45 45 45 46 46 47
42 42 42 42 42 43 43 43 43 43 43 42 41 41 40 40 40 40 41 42 42 42 43 43 43 43 44 44 44 43 43 44 44 44 44 45 46 46 46 46 46 46 47 48
41 42 42 42 42 43 43 43 43 43 43 43 42 42 41 41 41 41 41 41 42 42 42 43 43 43 43 44 44 44 44 45 45 45 45 46 46 46 46 46 47 47 48 48
38 39 41 41 41 42 42 42 42 43 43 42 42 42 42 42 42 42 42 42 42 42 42 42 42 43 43 44 44 44 44 45 45 45 46 46 47 47 47 47 48 48 48 48
36 37 38 39 40 41 41 41 41 42 42 42 41 41 42 42 42 42 42 42 41 41 41 42 42 43 43 44 44 44 44 45 45 45 45 45 46 46 47 47 47 48 48 47
34 34 35 37 38 39 40 40 40 40 40 41 40 40 40 40 41 41 41 41 41 41 40 41 42 43 43 43 44 44 44 44 44 44 44 45 45 46 46 46 46 46 46 46
32 32 33 34 35 36 37 38 39 39 39 39 39 39 39 39 39 40 40 40 40 40 41 42 42 43 43 43 43 43 43 43 43 43 43 43 44 44 44 45 45 45 45 45
30 31 31 32 32 32 33 34 35 36 37 37 37 38 38 38 39 39 39 40 40 41 42 43 43 43 43 42 42 42 42 42 42 42 42 43 43 44 44 44 44 44 44 44
29 30 30 31 31 31 31 32 33 34 35 36 36 36 37 37 37 38 38 39 40 41 41 40 40 40 40 41 41 41 41 41 41 42 43 43 43 43 43 43 43 43 42 42
29 30 30 30 30 31 32 32 32 33 34 35 35 36 36 37 37 37 37 38 38 39 38 38 38 38 38 38 38 39 39 40 40 41 41 41 42 42 42 41 41 40 40 40
28 29 29 30 30 31 32 32 33 33 33 33 34 35 35 35 35 35 36 36 35 36 36 36 36 36 37 37 37 37 38 38 39 39 39 38 38 39 38 38 38 37 37 37
26 27 28 29 30 30 31 32 32 32 32 33 33 33 32 32 33 33 33 33 34 34 34 34 35 35 35 36 36 36 36 37 37 37 36 36 35 35 35 34 34 34 34 34
25 26 27 28 29 29 29 30 30 31 31 31 31 30 30 31 31 32 32 32 33 33 33 34 34 34 34 34 34 35 35 35 35 35 35 34 34 33 33 32 32 33 33 33
25 25 26 27 27 27 27 27 27 27 27 27 28 28 28 28 28 29 30 30 31 31 32 32 32 33 33 33 33 33 34 33 33 33 33 32 32 31 31 31 32 32 32 32
25 25 25 25 25 25 25 26 26 26 26 26 26 26 26 26 27 27 28 28 29 29 30 30 31 32 32 32 32 32 32 31 31 31 31 30 30 30 31 31 31 30 30 30
24 24 24 24 24 24 24 24 24 24 24 25 25 26 26 26 26 26 27 27 28 28 28 29 30 30 30 30 30 30 30 29 29 29 28 29 29 29 30 30 29 29 29 29

GEFSNGP_500_meanwind_198.txt.gz
Wind_Speed
42 40 40 39 37 36 35 35 35 32 31 29 28 28 28 28 27 26 26 26 26 26 27 28 28 29 30 31 33 34 35 36 36 37 36 36 38 39 40 41 42 44 44 44
44 42 42 42 40 38 37 36 35 34 33 31 31 29 28 28 28 28 27 27 27 27 27 27 28 29 30 32 33 34 35 35 35 35 35 35 36 37 37 39 40 42 43 43
43 42 43 45 41 40 38 37 37 36 33 33 33 32 31 30 30 29 28 28 28 28 28 28 29 29 30 31 32 33 33 34 34 33 34 35 36 36 37 37 38 39 40 41
42 42 45 43 41 41 41 39 38 37 35 34 34 33 33 32 31 31 30 29 30 29 29 29 30 30 30 30 30 31 32 32 33 33 34 36 37 37 37 37 38 38 39 41
43 44 44 42 41 40 41 40 39 38 37 36 36 35 34 34 33 32 32 30 31 31 31 31 30 31 32 31 31 32 33 33 33 34 35 36 36 37 38 38 38 37 38 39
43 43 43 42 41 41 41 42 40 38 37 37 37 37 35 35 34 33 33 32 33 32 32 32 32 32 32 31 32 32 33 33 34 35 36 36 37 38 38 39 38 38 39 40
42 43 44 42 42 42 42 41 40 40 39 38 38 37 36 35 35 34 34 34 34 34 33 33 33 32 32 32 32 32 33 34 34 35 36 36 36 37 38 39 39 39 40 40
40 42 42 41 42 42 41 40 40 40 39 38 38 37 36 36 36 35 35 35 35 34 34 33 33 33 33 33 33 33 33 34 35 36 36 36 37 37 38 38 39 40 41 41
39 40 40 40 40 40 41 41 40 39 39 39 39 38 38 37 37 36 36 35 35 34 34 33 33 33 33 34 34 34 34 35 35 36 36 36 36 37 37 38 39 40 41 41
36 37 38 39 39 40 40 40 40 40 39 39 39 39 39 38 37 37 37 36 35 35 34 34 35 35 35 35 35 35 35 35 35 35 36 36 36 37 37 38 39 39 40 41
36 36 38 39 39 39 41 41 40 40 39 39 39 39 39 39 39 39 38 37 37 36 36 36 37 37 37 37 36 36 37 36 36 36 36 37 37 38 39 39 39 39 40 41
35 35 36 37 38 38 39 39 40 41 41 41 40 40 40 40 39 39 38 38 37 38 38 38 38 38 37 37 38 37 37 37 37 37 37 38 38 38 38 39 39 40 40 41
34 35 36 35 36 36 37 38 38 40 41 41 40 40 40 39 39 39 39 39 39 39 39 39 39 38 38 38 38 38 38 39 39 39 38 39 39 40 40 40 41 41 41 41
33 34 35 36 36 35 35 36 37 37 38 40 39 39 39 39 38 39 39 39 40 40 40 39 39 39 40 40 40 39 39 40 40 39 39 39 40 40 41 41 41 41 41 41
31 31 32 33 34 34 35 36 37 38 38 39 39 39 38 39 39 39 39 39 39 39 39 39 39 39 39 39 39 39 39 39 40 40 40 41 41 41 41 42 42 41 41 42
30 30 31 31 31 32 35 36 37 38 38 38 39 39 39 39 39 39 39 40 40 39 39 39 38 38 38 39 39 39 39 40 40 40 41 41 42 42 42 43 43 43 43 44
28 29 30 30 30 31 32 33 35 37 38 38 38 38 38 38 39 39 40 40 40 40 39 39 38 38 38 39 39 39 40 40 40 41 41 41 42 43 44 44 44 44 44 44
28 29 30 31 31 31 32 33 34 35 36 37 37 38 38 37 37 37 38 38 38 37 37 38 38 38 39 39 40 40 41 41 41 42 43 43 44 44 44 44 44 44 44 44
28 29 29 30 31 33 33 34 34 35 35 35 36 36 37 37 36 36 36 36 36 35 36 37 38 38 39 39 40 41 42 42 43 43 44 44 44 44 44 44 43 43 43 43
26 27 27 28 29 31 32 33 34 34 35 35 35 35 35 36 36 36 36 36 37 37 36 37 37 37 38 38 38 39 40 41 42 42 42 42 42 42 42 42 42 42 42 42
25 25 26 27 28 29 31 31 32 32 32 33 33 33 34 35 35 36 36 35 36 36 36 36 37 37 37 37 37 37 37 38 39 39 39 39 40 40 40 40 41 41 40 40
25 26 26 27 28 28 29 30 30 31 31 32 32 32 33 34 34 34 35 35 34 35 35 35 36 37 36 36 36 36 36 36 36 37 37 37 37 37 37 37 37 37 37 37
25 25 26 26 26 27 28 29 29 30 30 30 31 31 32 33 33 34 34 34 34 34 34 34 35 35 35 35 35 35 35 35 35 35 34 34 35 35 35 34 34 34 33 33
25 26 26 26 26 26 27 28 29 29 29 30 31 31 32 32 32 33 33 32 32 32 33 33 34 34 34 34 34 34 33 33 33 33 33 33 33 33 32 31 31 31 32 32
25 25 26 26 26 26 26 27 27 28 29 29 29 30 30 30 30 30 30 30 30 30 31 31 32 32 32 32 32 32 32 31 31 31 30 30 30 30 30 30 30 31 31 30
23 24 24 24 24 25 25 25 26 26 27 27 27 28 28 28 27 27 27 28 28 28 29 29 29 30 30 30 30 30 30 30 29 29 29 28 28 28 28 29 28 28 28 28
21 22 22 23 23 23 24 24 24 24 24 24 25 26 26 26 26 26 26 26 26 26 27 27 27 27 28 29 29 29 29 28 28 28 27 27 27 27 27 27 26 26 26 26

GEFSNGP_500_meanwind_204.txt.gz
Wind_Speed
40 38 37 38 39 38 39 38 38 34 34 31 31 31 30 30 30 30 30 30 29 28 28 28 28 29 29 28 30 31 32 33 34 34 34 35 35 36 38 38 38 40 42 42
42 40 40 39 39 40 39 39 39 38 35 33 33 32 31 31 31 31 31 30 29 29 27 27 27 28 29 29 29 30 32 32 31 32 33 34 35 35 36 37 38 39 41 42
40 40 40 41 37 37 38 39 39 38 35 35 35 33 32 32 32 31 31 30 30 30 28 28 27 28 29 29 30 32 32 32 32 32 33 34 35 35 36 37 38 39 41 42
39 41 42 40 38 37 37 37 38 37 36 36 35 35 34 33 32 32 31 31 31 30 29 29 29 28 29 29 30 32 32 32 32 33 34 35 36 37 37 38 40 41 42 42
37 39 40 38 36 36 37 37 37 36 35 35 36 35 35 33 33 33 32 31 31 31 30 30 30 30 30 30 31 32 33 33 34 34 35 36 37 37 37 38 40 42 43 43
34 36 37 36 35 35 36 37 35 35 35 35 35 36 34 34 33 33 33 33 33 32 31 31 32 32 32 32 32 32 34 34 34 36 36 36 36 37 38 38 39 40 41 42
33 34 35 34 34 34 35 35 35 35 35 35 35 36 35 35 35 34 34 34 33 33 32 32 32 32 32 32 32 33 34 35 35 36 36 36 36 36 37 37 37 38 38 40
32 33 33 30 32 33 32 33 35 35 35 36 36 36 35 35 35 34 35 34 34 33 32 33 33 33 33 33 33 33 33 34 34 35 35 36 36 36 36 37 36 36 36 37
30 30 30 30 31 32 33 33 33 34 34 35 35 35 35 35 35 35 35 34 34 33 33 33 33 33 34 35 35 34 34 34 35 35 35 35 36 36 36 36 35 36 36 36
27 28 28 28 30 31 32 32 32 32 32 33 33 34 35 35 36 36 35 34 34 34 34 34 34 35 35 35 35 35 35 35 35 35 35 36 36 36 36 36 36 36 36 36
26 26 28 29 29 29 30 31 31 31 30 30 32 32 33 34 35 35 36 35 35 35 35 34 34 35 35 35 35 35 35 35 35 35 36 36 36 36 36 36 36 36 36 36
23 23 25 26 28 29 28 28 29 29 29 30 31 32 33 33 34 35 36 36 36 35 35 35 35 35 35 35 35 35 35 35 35 35 35 35 35 35 35 36 36 36 36 37
25 25 27 28 29 30 29 28 28 29 29 30 31 32 32 32 32 33 34 35 35 35 36 36 36 36 35 35 35 35 35 36 36 36 36 35 35 35 35 35 35 36 37 38
26 26 27 28 29 30 30 29 29 29 29 29 30 30 32 33 33 34 34 34 34 35 35 34 34 34 35 35 35 35 35 35 36 36 36 36 36 36 36 36 37 37 38 38
25 26 27 28 29 30 30 30 30 30 30 30 31 31 32 33 34 34 34 34 34 35 35 35 35 35 34 34 34 35 35 35 35 36 36 36 36 36 36 37 37 38 38 39
23 25 27 28 29 30 31 31 31 31 31 31 32 32 32 33 33 34 35 34 34 34 35 35 35 34 34 34 34 34 34 34 34 35 35 35 36 36 37 38 38 38 39 39
21 23 25 26 27 29 30 31 31 31 32 32 32 32 32 33 33 33 34 34 34 33 34 34 35 34 34 34 34 33 33 33 34 34 34 36 36 37 37 38 38 39 39 40
20 22 23 24 25 26 27 29 30 30 30 31 32 32 32 33 33 33 33 33 33 33 33 33 33 33 33 34 33 33 33 33 34 35 35 35 35 36 37 38 39 40 41 41
20 20 22 23 24 25 26 28 29 30 30 31 31 31 32 32 32 32 32 32 31 32 31 31 31 31 32 32 33 33 33 34 34 35 35 35 36 37 38 39 39 40 40 41
21 21 21 22 23 24 26 28 29 30 31 31 31 31 31 31 31 31 31 31 30 30 30 30 30 30 30 31 31 32 33 33 34 35 36 36 37 38 38 39 40 40 40 40
21 22 22 22 23 25 26 27 28 28 29 30 30 30 30 30 30 29 29 29 29 28 28 28 29 29 29 30 30 31 32 34 34 35 36 36 36 37 37 37 38 38 38 38
22 22 22 23 23 24 25 26 26 27 27 28 28 29 29 29 29 29 29 28 29 29 28 28 29 29 30 30 31 31 32 33 34 34 35 35 36 36 36 36 36 35 36 36
21 22 22 22 23 24 24 25 25 25 26 26 27 27 28 28 29 29 29 29 29 29 29 30 30 30 30 30 30 30 31 31 32 32 33 34 34 34 33 33 33 32 32 32
21 21 22 22 22 23 24 24 24 24 25 26 26 27 27 28 28 29 29 29 29 29 29 29 30 30 30 30 30 30 30 30 31 30 30 30 30 30 29 29 29 30 30 30
20 21 21 21 22 22 22 23 23 24 24 24 25 25 26 26 27 27 27 28 28 28 28 28 29 29 29 29 29 29 29 28 28 27 27 27 27 27 27 27 27 27 27 27
20 20 21 21 21 21 21 21 21 22 23 23 24 24 24 24 24 24 25 26 26 27 27 27 27 27 27 27 27 26 26 26 26 26 25 25 25 25 25 25 25 25 25 24
18 19 19 19 19 19 20 20 21 21 22 22 22 22 22 21 21 22 23 23 23 24 24 24 25 25 25 25 25 25 25 25 24 24 24 23 23 23 23 23 23 23 22 22

GEFSNGP_500_meanwind_210.txt.gz
Wind_Speed
38 38 40 41 41 40 41 41 42 40 38 35 35 36 37 37 36 35 35 35 35 35 35 34 34 33 33 33 34 34 34 35 35 34 34 34 36 36 37 37 39 40 40 41
39 38 39 41 42 43 42 41 41 40 38 36 36 37 37 38 37 36 36 35 35 35 35 34 34 33 33 33 34 34 34 33 33 33 33 33 34 35 36 37 38 39 39 39
39 39 40 41 40 41 42 41 40 40 39 38 38 38 38 37 37 37 36 35 35 35 35 35 34 34 34 34 33 33 34 34 32 33 33 33 33 34 35 36 36 36 38 38
37 38 41 40 38 39 40 41 41 40 38 37 37 38 38 38 38 38 37 36 36 36 36 36 35 35 35 35 35 35 34 34 33 33 32 32 32 32 33 33 34 35 36 38
34 36 39 38 38 38 38 38 39 39 38 37 37 38 38 38 38 37 37 36 36 36 35 36 36 35 36 35 35 35 34 34 34 34 33 32 32 31 32 33 34 35 35 37
32 33 34 34 35 35 35 36 35 36 37 37 36 37 38 37 37 36 36 37 36 36 35 35 35 35 36 35 35 35 34 34 34 34 34 34 34 34 33 34 35 36 36 36
26 27 28 29 31 31 33 33 32 33 33 34 35 36 37 37 37 36 36 36 36 36 36 36 36 36 36 36 36 36 35 34 34 34 34 35 36 35 34 34 35 36 37 38
23 25 25 24 26 29 31 31 31 31 32 33 34 35 36 36 36 36 36 36 36 36 36 36 36 36 35 35 36 36 35 34 34 34 36 36 36 35 35 35 36 36 37 37
22 23 23 23 24 26 28 30 31 30 31 32 33 34 35 36 36 36 36 36 36 36 36 36 36 36 36 35 35 35 35 35 35 35 35 36 37 37 37 37 37 37 37 37
20 22 23 22 22 24 26 28 29 30 31 32 33 33 34 34 35 35 35 36 36 36 36 36 36 36 36 36 36 35 35 36 36 36 36 36 36 36 37 38 38 38 37 37
20 21 22 22 22 23 24 25 27 28 29 30 31 31 31 32 32 33 33 33 34 35 35 35 35 35 35 35 35 35 35 35 36 36 36 36 37 38 38 38 39 39 38 38
20 21 22 22 22 23 24 25 25 26 27 27 28 29 29 30 31 32 33 33 34 34 35 35 35 35 34 34 33 34 34 34 35 36 37 37 37 37 37 38 39 39 39 40
20 21 22 22 23 24 25 25 25 25 26 27 27 28 29 30 31 32 33 34 34 34 35 34 34 34 34 34 33 33 34 34 34 34 35 35 35 36 36 37 38 39 39 39
19 20 21 22 22 23 24 25 26 26 26 26 27 27 28 29 31 32 33 34 34 34 34 34 34 33 33 34 34 34 33 33 33 33 34 34 34 34 35 36 36 37 38 38
20 21 21 22 22 22 23 24 25 26 26 27 27 27 28 28 29 30 31 32 33 33 32 32 33 33 33 33 33 33 33 34 34 34 34 34 34 34 35 35 35 35 36 36
20 21 21 22 22 23 23 24 24 25 26 26 27 27 28 28 28 28 29 30 31 31 31 31 32 32 33 33 34 34 34 34 35 34 34 34 33 33 34 34 35 34 34 35
20 20 21 22 22 23 24 25 25 26 26 27 27 27 27 27 28 28 28 29 29 30 30 31 32 32 33 34 34 34 34 35 35 35 34 34 33 33 34 33 33 33 33 34
21 21 22 22 23 24 25 25 26 26 27 28 28 28 28 29 29 30 30 30 30 31 31 31 31 32 32 32 33 33 33 34 34 34 34 34 34 34 34 34 34 34 34 34
21 21 22 22 23 23 23 25 26 27 28 28 29 29 29 30 30 30 30 30 31 31 31 31 31 31 31 31 31 31 32 32 32 32 32 32 33 33 34 35 35 35 35 36
21 21 22 22 23 23 23 24 25 26 26 27 27 28 29 29 30 29 28 29 29 30 30 30 30 31 30 30 31 31 31 31 30 30 30 30 31 31 32 33 34 34 35 36
21 22 22 22 22 23 23 23 24 24 25 26 26 27 27 28 28 28 28 28 28 29 29 29 30 30 30 30 30 29 29 29 29 29 29 30 30 30 31 32 33 33 33 34
22 22 22 23 23 22 23 23 23 23 24 24 24 25 26 26 27 27 28 28 28 28 28 28 29 29 29 28 28 27 27 27 28 29 30 30 30 31 31 31 31 32 32 33
22 21 21 21 22 22 23 23 23 23 24 24 24 24 25 25 26 26 26 27 28 28 28 28 28 28 27 27 27 27 27 27 28 28 29 29 30 30 30 30 30 30 30 30
21 21 21 21 21 21 21 22 22 23 23 24 24 24 24 25 26 26 26 26 27 28 28 28 28 27 27 27 27 27 27 27 28 28 28 28 27 27 28 28 28 28 28 28
20 20 20 20 21 21 20 20 20 21 22 22 22 23 23 23 24 25 25 26 26 27 28 28 28 27 27 27 27 27 27 27 27 26 26 26 26 26 26 26 26 26 26 26
19 19 19 19 19 18 18 18 18 19 19 20 20 21 21 22 22 22 23 24 24 25 26 26 27 27 27 27 27 26 26 26 25 24 24 24 24 24 24 24 24 24 24 24
18 18 18 18 18 18 18 18 18 18 18 19 19 20 20 20 21 21 21 21 21 22 22 23 24 24 24 24 24 24 24 24 23 23 22 22 22 22 22 22 22 22 22 23

GEFSNGP_500_meanwind_216.txt.gz
Wind_Speed
31 31 31 33 33 33 35 37 39 39 38 36 34 36 36 37 37 38 38 38 39 39 39 39 39 39 39 39 39 39 39 39 39 39 39 39 39 39 40 41 42 43 43 43
30 31 32 34 34 33 34 35 37 38 38 37 36 37 37 37 38 38 37 37 37 38 38 38 38 38 39 39 39 39 39 39 39 39 39 38 38 38 38 40 41 42 42 42
29 31 33 33 33 34 35 35 36 36 36 37 37 38 38 38 39 39 39 38 38 38 38 38 37 38 38 39 39 39 39 39 39 39 39 39 38 37 37 38 39 40 40 40
27 29 31 31 32 33 34 35 36 36 36 36 36 38 38 38 38 38 38 38 38 38 38 38 38 39 39 39 39 39 39 39 39 38 37 37 37 37 37 37 38 38 38 39
25 25 27 28 30 31 33 34 35 36 37 37 37 38 39 39 38 37 37 38 38 38 38 38 38 38 38 39 39 39 39 39 38 38 38 37 37 36 36 37 37 37 37 38
22 24 24 24 25 27 29 30 30 32 34 36 36 37 37 37 38 37 37 38 38 38 38 38 38 38 38 38 39 39 39 39 39 39 38 37 37 36 36 36 36 36 36 36
19 21 22 22 22 24 26 27 28 29 30 32 34 35 36 36 37 37 37 38 37 37 37 37 37 37 37 37 37 38 38 38 38 38 37 37 37 36 36 35 35 35 35 35
17 18 20 21 21 23 25 27 28 28 29 30 31 33 34 34 35 35 35 36 36 36 36 36 36 36 36 37 37 37 37 37 38 37 37 36 36 36 36 36 36 36 36 36
17 18 17 19 21 22 23 25 26 27 27 27 28 28 30 31 31 32 34 35 35 35 35 34 35 35 36 36 36 36 36 36 37 37 36 37 37 36 36 37 36 36 36 36
17 17 17 17 19 20 21 22 23 25 25 25 26 27 27 28 29 30 32 33 34 34 35 35 34 34 34 34 35 35 36 36 36 36 36 37 37 37 37 37 37 37 37 37
16 16 16 17 18 19 20 21 22 23 24 24 24 25 26 27 29 30 30 32 32 33 34 34 34 34 33 33 34 35 35 35 35 36 36 37 37 37 37 38 38 38 38 38
15 16 16 16 17 19 20 21 22 23 23 24 24 24 25 26 27 28 29 30 31 32 33 33 33 33 33 33 34 34 34 34 35 35 35 36 36 37 38 38 38 38 39 39
15 15 15 16 16 17 19 20 21 22 23 23 24 24 24 25 27 27 28 29 31 31 32 32 32 33 33 33 33 33 33 34 34 34 34 35 35 36 37 38 38 38 39 39
15 15 16 16 16 17 17 18 20 21 22 23 23 24 25 25 26 27 27 28 30 31 31 32 32 33 33 33 33 33 33 34 34 34 34 34 35 36 37 38 38 39 39 40
14 15 16 16 16 16 17 18 19 21 22 23 24 24 25 25 26 27 27 28 29 30 30 31 31 32 33 33 33 33 33 33 33 33 33 33 33 34 35 36 37 37 38 39
14 14 15 16 16 16 17 18 19 20 21 21 22 23 24 25 26 26 27 28 29 30 31 31 31 32 32 32 32 32 32 32 32 31 31 31 32 33 34 34 35 36 36 37
13 14 14 15 16 17 18 19 19 19 20 20 21 22 24 25 26 27 27 28 28 29 30 31 31 31 31 31 31 32 32 32 32 32 32 32 33 33 33 33 34 34 34 34
15 15 16 16 17 18 19 20 20 20 20 20 21 22 23 25 25 26 26 26 26 27 28 28 29 29 29 30 30 30 31 31 31 32 32 32 32 32 32 32 31 31 31 31
16 17 17 17 18 18 19 20 21 21 22 22 22 22 23 23 24 24 25 25 25 25 25 26 26 26 27 28 29 30 31 31 31 31 31 30 30 30 30 30 30 30 30 30
17 17 18 19 19 19 20 20 21 22 22 22 22 21 21 22 22 23 23 24 24 24 25 25 25 26 27 27 28 28 29 30 30 30 30 29 29 29 29 29 29 29 29 29
18 19 19 19 19 19 19 19 19 20 20 20 20 20 20 21 22 22 23 23 24 25 25 25 25 25 26 26 27 27 28 28 28 28 28 28 27 27 27 28 28 28 29 29
19 20 19 19 19 19 18 18 18 18 19 19 20 20 20 21 21 22 23 23 24 25 25 26 25 25 25 26 26 26 26 26 26 27 26 26 27 27 27 27 27 28 28 29
20 20 20 20 19 19 19 19 18 19 19 20 20 20 21 21 22 22 23 24 24 24 24 25 25 25 25 25 25 25 25 25 25 25 26 26 26 27 27 27 27 28 28 29
20 20 20 20 20 19 19 19 19 19 20 20 21 21 22 22 22 22 22 23 23 24 24 24 25 25 25 25 25 25 24 24 24 25 25 26 26 27 27 27 27 27 28 28
20 20 19 18 18 17 17 17 18 18 19 19 19 19 20 20 20 21 21 21 22 22 23 23 24 24 24 24 24 24 24 24 24 24 25 25 25 26 26 26 26 26 26 26
20 20 19 18 17 16 16 16 17 17 17 17 17 17 17 18 18 18 19 20 20 20 21 21 22 23 23 23 24 24 24 24 24 24 23 23 23 24 23 23 23 23 23 23
20 19 18 17 17 16 16 16 16 16 16 16 16 16 17 17 17 18 19 19 20 19 19 19 20 21 22 22 22 22 22 22 22 22 22 22 22 22 21 21 21 21 21 21

GEFSNGP_500_meanwind_222.txt.gz
Wind_Speed
27 27 28 30 31 32 35 36 37 38 39 40 41 40 39 39 39 39 38 39 39 39 40 40 41 43 43 43 42 42 42 42 42 42 41 41 40 40 40 41 41 42 43 43
26 27 29 31 30 31 34 36 37 37 38 38 39 40 40 39 39 39 39 38 38 39 40 41 41 42 43 43 43 42 42 42 42 43 43 43 42 42 42 41 40 41 41 42
23 24 27 27 28 30 32 33 35 37 37 37 37 38 38 39 39 38 38 39 39 39 39 40 41 42 42 43 43 43 42 42 43 43 43 43 43 43 42 41 41 40 41 41
21 21 23 24 25 27 29 31 33 35 36 37 38 37 37 38 39 39 39 39 39 39 39 39 40 41 42 42 43 43 43 43 43 43 43 43 43 43 42 41 41 41 41 41
18 19 21 23 24 26 28 30 31 33 35 36 38 37 38 38 39 39 38 39 40 40 39 40 40 40 41 41 42 42 43 43 43 43 43 43 43 43 42 42 42 42 42 41
17 18 19 20 21 24 27 29 30 31 32 34 35 36 36 37 38 38 38 38 39 40 40 40 40 40 40 41 41 41 42 43 44 44 43 43 43 43 42 42 42 42 41 41
17 17 17 18 19 21 24 25 27 29 30 32 34 34 34 35 36 38 38 38 38 39 40 40 40 40 41 41 41 42 42 42 43 44 43 43 43 42 42 42 42 42 41 41
16 17 17 17 19 19 20 21 24 27 29 30 32 33 33 34 34 35 36 36 37 38 39 39 40 40 40 40 41 41 41 41 42 43 43 43 43 43 43 42 42 41 41 41
17 18 17 17 18 19 20 20 22 24 26 27 29 31 31 32 33 33 34 34 35 36 37 37 38 39 40 40 40 40 40 40 40 40 41 41 42 42 42 42 41 41 40 40
16 17 18 18 18 19 20 20 20 21 24 25 26 27 29 30 31 31 32 32 33 34 34 35 35 35 37 38 39 39 38 38 38 38 38 39 40 41 41 41 40 40 40 40
17 17 17 18 19 20 20 20 20 21 23 24 25 26 27 28 29 30 30 30 31 32 33 33 33 33 34 36 37 38 38 37 37 37 37 37 37 39 39 39 40 40 40 40
17 17 17 17 18 20 20 20 20 21 22 24 24 24 25 26 27 27 28 29 30 30 31 32 33 33 33 33 34 35 35 36 36 36 37 37 36 37 38 39 39 40 41 41
17 17 18 17 17 18 19 20 20 20 21 22 24 25 25 25 25 26 27 28 29 30 31 32 33 33 33 33 33 33 34 34 35 36 36 36 36 36 37 38 39 39 40 40
17 17 17 17 17 17 17 18 19 20 20 21 23 24 23 23 24 25 26 26 27 29 30 31 32 33 34 34 34 34 34 35 34 34 34 35 35 36 36 36 37 38 38 39
15 15 16 16 16 16 16 16 18 19 19 19 20 22 22 22 23 25 26 26 27 28 29 30 31 32 34 34 35 35 35 35 35 34 34 34 35 36 36 36 36 36 37 38
15 15 16 16 16 16 16 15 16 17 18 19 20 21 22 23 23 25 26 27 27 27 28 28 29 30 32 33 33 34 34 34 34 34 34 34 35 35 35 35 35 35 35 36
16 16 16 16 16 16 16 16 16 16 17 19 20 21 22 23 23 25 26 26 27 27 28 28 29 30 30 31 32 32 33 33 33 33 33 34 34 34 34 34 34 35 35 35
16 16 16 16 16 16 17 17 17 17 17 18 19 21 23 23 23 24 25 25 26 27 27 28 28 29 29 30 31 31 31 32 32 32 32 32 32 32 33 33 34 34 34 34
17 17 17 17 17 17 17 18 18 18 19 19 20 21 22 23 24 24 25 26 26 26 27 27 27 28 28 28 30 30 30 31 31 31 31 32 31 32 32 32 32 33 32 32
18 18 18 18 18 18 18 18 19 19 19 20 20 21 22 22 23 24 25 25 25 25 25 26 26 27 27 28 29 29 30 31 31 31 31 31 31 31 31 31 31 31 31 31
18 18 18 18 19 18 18 19 19 20 20 20 20 21 22 22 23 23 23 23 24 24 24 25 25 26 27 28 28 29 29 29 29 30 31 31 31 30 30 30 30 30 30 31
19 19 19 19 19 19 19 19 19 19 19 19 20 20 21 21 21 22 22 22 22 23 24 24 25 25 26 26 27 27 27 27 27 28 29 29 29 29 29 29 30 30 30 30
20 20 20 20 20 20 20 20 20 20 19 19 19 20 20 20 20 20 21 21 22 23 23 24 24 24 25 25 25 25 25 25 26 26 27 28 28 28 29 29 29 29 28 29
21 21 20 20 20 20 20 20 20 20 19 19 19 19 19 19 19 20 20 21 22 22 22 22 23 23 24 24 24 25 25 25 25 25 25 26 26 27 27 27 27 27 27 27
21 21 21 20 20 20 20 19 19 18 18 17 17 17 17 17 17 18 19 20 20 21 21 21 22 22 22 22 23 23 23 24 24 24 24 24 25 25 26 26 27 27 27 26
21 21 21 21 20 20 19 18 18 17 16 16 16 16 16 16 17 17 18 18 19 20 21 21 21 22 22 22 22 23 23 23 23 24 24 23 23 24 24 25 25 25 26 26
22 21 21 20 20 19 18 17 17 17 16 16 16 16 15 16 16 17 17 18 18 19 20 20 20 21 21 21 21 22 22 23 23 23 23 23 23 22 22 23 23 23 24 24

GEFSNGP_500_meanwind_228.txt.gz
Wind_Speed
21 22 24 25 24 25 28 31 34 34 35 36 36 37 38 38 38 39 39 40 41 43 44 44 45 46 46 46 47 47 47 47 47 47 47 48 47 46 46 45 45 45 45 45
20 21 23 24 25 25 27 30 32 34 35 36 37 37 38 39 39 40 40 40 40 41 42 43 44 45 45 46 46 47 47 47 47 47 48 48 48 48 47 46 45 45 45 45
19 20 21 22 24 25 26 29 31 34 34 34 36 37 38 39 38 39 41 41 40 40 41 42 43 44 44 44 45 46 47 46 47 47 48 48 48 48 47 46 46 46 45 45
19 19 20 20 21 23 26 27 28 31 33 32 33 35 36 37 38 39 40 41 42 41 41 41 42 43 44 44 44 45 45 45 46 47 48 48 47 47 47 46 46 46 46 45
18 19 19 18 19 21 24 26 27 29 31 32 32 34 35 36 37 38 39 39 40 41 41 41 42 42 43 43 43 43 44 44 44 45 45 46 46 45 45 45 45 45 46 45
15 16 16 17 19 20 22 24 26 27 28 30 32 34 34 35 37 38 37 38 39 39 40 41 42 42 42 42 42 42 42 43 43 43 44 45 45 45 45 45 45 45 45 45
13 14 14 15 17 19 20 22 24 25 27 28 30 31 32 34 35 35 37 37 38 39 40 41 41 42 41 41 41 41 41 42 42 42 42 43 44 45 45 45 45 45 45 45
12 13 13 14 16 18 19 20 21 23 25 27 28 29 30 32 34 33 34 35 35 37 39 40 41 42 42 42 41 41 41 42 43 43 43 43 43 43 44 45 44 44 44 44
12 13 14 14 15 17 18 19 20 22 23 25 26 26 27 29 31 31 31 32 33 34 35 37 39 40 41 41 41 41 41 41 42 43 44 44 44 43 43 43 44 44 45 44
12 12 13 14 16 17 17 17 18 20 21 22 24 25 25 26 27 29 30 30 32 32 33 35 37 38 38 39 40 40 40 40 41 42 43 43 44 44 43 43 43 44 44 44
11 12 12 14 15 17 18 19 19 19 20 21 22 23 23 23 24 25 27 29 30 30 31 33 34 35 35 36 36 37 38 38 39 40 42 42 42 42 42 42 42 42 43 43
11 12 13 13 14 15 16 18 18 19 19 20 21 21 22 22 22 23 25 27 28 28 29 30 32 33 34 34 34 35 36 37 37 38 39 40 40 41 41 41 42 42 42 42
12 13 14 14 15 15 16 17 18 18 18 19 20 20 21 21 22 23 23 25 26 27 28 29 30 32 33 33 34 35 35 35 36 36 37 38 38 39 40 40 40 40 40 40
13 13 14 14 15 16 17 17 17 17 18 18 19 20 21 21 22 22 23 24 25 26 27 28 30 30 31 32 33 34 34 35 36 36 36 36 36 36 37 38 38 38 39 39
14 15 15 15 15 16 17 17 17 17 17 17 18 19 20 20 21 22 22 23 24 25 27 28 29 30 31 32 33 34 34 34 35 35 35 35 35 34 34 35 36 36 36 37
15 16 16 16 16 16 16 16 17 17 17 17 17 19 19 20 21 22 22 23 24 25 26 27 28 29 30 32 32 33 34 34 34 34 34 35 35 35 34 35 35 36 36 36
16 16 17 17 17 16 16 16 17 17 17 17 17 17 19 19 20 20 21 23 24 24 25 26 27 28 29 30 30 31 32 32 33 33 34 35 35 35 36 36 35 35 36 36
16 17 17 17 17 16 16 16 16 17 17 17 16 17 18 19 20 20 21 22 23 24 25 26 27 27 28 29 29 30 31 31 32 33 34 34 35 35 36 36 35 35 36 36
17 17 17 17 16 16 16 16 16 16 16 16 16 16 17 18 19 20 21 22 22 23 24 25 26 27 27 28 29 29 30 30 31 32 32 32 32 33 33 34 34 34 34 35
17 17 17 16 16 16 16 16 16 16 16 16 16 17 17 18 19 20 21 22 22 23 24 25 25 26 27 27 27 28 29 30 30 31 32 32 32 32 33 33 34 34 34 34
17 17 17 17 17 16 16 16 16 16 16 17 17 18 18 19 19 20 21 22 22 23 24 24 25 26 26 27 27 28 29 29 30 31 32 33 33 33 34 34 34 34 34 34
18 18 18 18 17 17 16 16 16 16 17 17 17 17 17 18 19 20 20 21 21 22 22 23 23 24 25 26 26 26 27 27 28 29 30 31 31 32 32 33 33 33 33 33
19 18 18 17 17 16 17 17 17 17 16 16 16 16 17 17 17 17 18 18 18 20 21 21 22 22 22 23 24 24 25 26 26 27 27 28 28 29 30 30 30 31 30 30
19 18 18 17 17 17 17 18 17 17 16 16 16 16 16 16 16 16 16 16 16 18 19 20 21 21 22 22 23 23 24 24 24 25 25 25 26 26 27 27 27 28 28 28
19 18 18 17 17 17 17 18 18 17 17 16 16 16 16 15 15 14 14 15 15 16 17 18 20 21 21 22 23 23 23 24 24 24 24 24 24 25 25 26 26 27 27 27
19 18 17 17 17 17 18 18 18 17 17 16 16 16 15 15 14 14 14 15 15 16 17 18 19 20 21 22 23 23 23 23 23 23 23 24 24 24 24 25 25 25 25 26
18 18 18 18 18 18 18 18 17 17 17 16 16 15 15 14 14 14 14 14 15 16 17 18 18 19 20 21 21 22 22 22 22 22 23 23 23 24 23 23 24 24 24 25

GEFSNGP_500_meanwind_234.txt.gz
Wind_Speed
21 21 22 24 25 25 26 28 30 30 32 33 33 34 35 38 39 40 42 43 44 44 46 47 49 50 51 51 52 52 52 51 50 50 50 50 50 49 49 48 47 47 47 47
20 21 21 22 24 26 27 28 29 30 31 31 32 33 34 36 38 40 40 42 42 43 44 46 47 49 50 51 51 52 52 52 51 51 50 50 50 50 49 48 48 48 47 47
20 21 21 22 21 22 26 27 28 30 30 31 32 32 34 35 36 37 38 39 42 43 44 44 46 48 49 51 51 52 52 52 52 51 51 51 50 50 49 49 48 48 47 47
19 20 21 20 20 20 23 25 27 29 30 30 31 32 33 34 36 37 38 39 40 42 44 45 46 46 48 50 51 51 52 52 51 51 52 52 51 51 50 49 49 49 49 48
17 17 18 18 18 19 21 23 25 27 29 30 31 31 32 34 34 36 38 39 40 42 43 44 46 48 49 49 50 50 51 51 51 51 51 51 51 51 51 51 51 50 50 50
15 15 15 16 17 18 20 21 23 25 26 28 29 30 30 32 34 35 36 38 39 41 42 44 45 47 48 48 49 49 50 50 51 50 51 51 51 51 51 51 51 51 51 51
14 15 15 15 16 17 18 19 21 23 24 25 27 28 29 30 32 33 34 35 36 38 39 42 44 45 46 46 47 48 49 50 50 50 51 51 51 51 51 50 50 50 50 50
13 14 14 14 16 17 17 18 20 22 23 24 25 25 26 28 29 30 33 33 34 34 35 36 39 42 44 45 45 46 46 47 48 49 50 50 50 51 50 50 49 50 49 49
14 13 14 14 16 17 18 19 19 21 22 23 23 24 25 26 27 29 31 33 33 33 33 34 36 38 41 43 44 44 45 46 47 48 48 48 48 49 49 49 48 48 48 48
14 14 15 15 16 17 18 19 20 21 22 23 23 23 24 25 26 27 28 31 32 33 34 34 35 37 39 40 42 43 44 45 45 46 46 47 47 47 47 47 47 47 47 46
15 15 15 15 16 17 17 18 19 20 21 22 22 23 23 24 25 26 27 29 30 31 32 33 33 35 37 38 39 40 42 43 43 44 44 44 45 45 45 46 46 46 46 46
16 16 16 16 17 17 17 17 18 18 19 20 21 21 22 22 23 23 24 26 28 29 30 31 32 33 34 35 37 38 39 39 40 41 41 42 43 43 43 44 44 45 45 45
16 16 17 18 18 18 18 18 18 18 18 18 19 20 21 21 22 23 24 24 25 27 28 29 30 31 31 32 34 36 37 38 38 39 40 40 40 40 40 41 42 42 42 42
17 17 17 18 18 18 18 18 18 18 18 19 19 20 21 21 21 22 22 23 24 25 28 28 29 30 30 31 32 34 35 36 37 38 38 38 39 40 40 40 39 40 41 41
17 17 17 17 18 18 18 18 18 18 18 19 19 20 21 21 22 21 22 22 23 24 25 27 28 29 30 31 32 33 33 35 36 36 36 37 38 38 39 39 39 39 40 40
17 17 17 17 17 18 18 19 19 19 19 19 20 20 20 21 21 22 22 22 22 23 24 25 27 29 29 30 31 32 34 34 35 36 37 37 37 38 38 38 37 37 38 39
17 17 17 18 18 18 19 20 20 20 20 20 20 20 19 19 20 21 21 22 22 22 22 23 25 27 28 29 30 31 32 33 34 35 36 37 38 38 38 37 37 37 37 38
18 18 18 18 18 19 19 19 20 20 20 20 20 20 19 20 20 20 20 21 21 21 21 22 23 24 25 27 28 29 30 31 32 33 34 35 36 37 37 36 36 36 36 36
19 19 19 19 19 19 19 19 19 19 19 19 20 20 20 20 20 20 20 20 21 21 22 22 23 24 25 26 27 28 28 29 30 31 32 33 34 35 35 35 35 35 35 36
20 20 20 20 20 19 19 19 19 19 19 19 19 19 19 19 19 20 20 20 20 21 21 22 23 24 25 25 26 27 28 28 29 30 31 31 32 33 33 33 34 34 34 35
21 21 21 20 20 19 19 19 19 19 19 18 18 18 18 19 19 19 19 19 20 20 20 21 22 23 24 25 26 26 27 28 29 29 30 31 32 32 33 33 33 33 33 34
22 21 21 21 20 20 20 19 19 19 18 18 18 18 18 18 18 18 19 19 19 19 19 20 21 21 23 24 24 25 26 27 28 28 29 29 30 31 32 33 33 33 34 34
22 22 22 21 21 20 20 20 19 18 18 18 18 18 18 17 17 17 18 18 18 18 19 19 20 21 21 22 23 24 24 25 26 27 28 28 29 30 31 32 32 33 33 33
22 22 22 21 21 20 20 19 19 18 17 17 18 18 18 17 17 17 17 16 17 17 18 18 19 20 21 22 23 23 24 24 25 25 26 27 28 28 29 30 30 31 31 31
22 22 21 21 20 20 20 19 18 18 17 17 17 17 17 17 17 16 16 16 16 17 17 17 18 19 20 21 22 23 24 24 24 24 24 25 26 26 27 28 28 29 29 30
21 21 21 20 20 20 19 19 18 18 17 17 17 17 17 17 17 16 16 16 16 16 17 17 18 18 19 20 21 22 23 24 24 24 24 25 25 25 26 26 27 27 28 29
21 21 21 20 20 19 19 18 18 18 17 17 17 17 17 17 16 16 15 15 15 16 16 16 17 18 18 19 20 21 22 23 23 24 23 24 24 24 24 25 25 26 26 27

GEFSNGP_500_meanwind_240.txt.gz
Wind_Speed
19 20 20 21 21 22 23 24 25 25 26 25 28 29 30 32 33 36 39 42 43 44 46 48 50 52 53 53 53 53 53 53 53 53 53 52 52 52 52 52 51 51 50 49
17 18 18 19 20 19 21 23 24 25 25 24 25 26 29 30 31 33 37 40 42 43 44 46 48 50 53 53 53 53 53 53 53 53 54 54 53 53 52 52 52 52 52 51
16 16 17 18 18 18 18 20 22 24 24 24 25 25 26 28 30 32 34 38 41 43 44 45 47 49 52 53 53 53 54 53 53 53 54 54 54 54 54 53 53 53 53 52
15 15 16 16 17 18 19 19 20 21 23 24 25 25 26 26 28 30 32 34 39 42 43 44 46 47 49 52 53 53 54 54 54 54 54 55 55 55 55 54 54 54 53 53
14 14 14 14 14 16 18 18 19 21 22 24 25 25 26 27 27 29 31 32 35 38 40 42 44 46 47 49 51 53 53 53 54 54 54 55 56 55 55 55 54 54 54 54
15 14 13 13 13 14 15 16 18 19 20 22 24 25 26 27 27 28 30 32 34 36 38 40 42 44 46 47 49 51 52 52 53 53 53 53 54 54 55 55 55 54 54 54
14 14 13 12 12 12 14 15 16 17 19 20 22 23 24 25 26 26 27 30 33 35 37 38 40 42 44 45 48 49 51 51 52 52 52 52 52 52 53 53 53 53 54 54
15 14 13 12 12 13 13 14 15 16 18 19 21 22 23 24 25 25 26 27 30 32 34 36 38 41 42 44 46 48 49 50 50 51 51 52 52 52 52 52 53 52 53 53
15 15 14 14 14 14 14 15 15 15 16 17 18 20 21 23 23 24 25 26 28 30 31 33 35 37 39 40 43 45 47 50 51 51 51 51 52 52 51 52 52 52 52 53
15 15 15 15 15 15 15 16 16 16 15 16 16 18 19 20 22 23 24 25 26 28 29 31 32 34 36 37 39 43 45 47 49 50 50 50 51 51 51 52 53 52 52 52
15 14 14 14 15 15 15 15 16 16 16 16 16 17 17 18 19 21 22 24 25 27 28 30 31 33 35 35 37 39 41 43 46 47 47 48 49 50 50 51 51 52 52 53
15 15 15 15 15 15 15 15 15 15 15 16 16 16 16 17 18 19 20 21 23 25 26 28 30 31 32 33 35 36 37 40 42 44 45 46 47 48 48 49 50 50 51 52
16 15 16 16 15 15 15 14 15 15 15 16 16 17 16 16 17 18 19 21 21 22 23 25 27 29 29 30 31 33 34 36 38 40 41 42 43 45 47 47 48 48 49 49
17 16 16 16 16 16 15 15 14 15 15 16 16 17 17 17 17 18 18 19 19 20 21 22 24 26 28 29 30 31 33 33 34 36 39 40 41 43 44 45 45 45 45 45
18 17 17 17 17 17 16 16 16 16 16 17 17 17 17 18 18 18 19 19 19 19 20 20 21 23 25 27 30 31 32 33 33 33 35 37 38 40 42 43 43 43 43 43
18 18 18 17 17 17 17 17 17 17 17 18 18 18 19 19 19 19 19 19 20 20 20 21 22 22 23 25 27 29 30 32 33 33 34 35 37 38 38 39 40 41 42 41
18 18 17 18 18 18 18 18 18 18 18 18 18 18 19 20 21 20 20 20 20 21 21 21 22 22 23 24 25 27 29 30 31 32 33 34 35 36 37 38 38 39 40 40
19 19 19 18 18 18 18 18 18 17 18 18 19 19 20 20 21 21 21 21 21 21 21 21 22 22 23 24 24 25 27 28 28 29 30 31 33 34 35 37 37 38 39 39
21 21 20 19 19 19 18 18 18 18 18 19 19 19 19 19 20 20 20 21 21 21 21 21 21 21 22 23 24 25 26 27 27 28 29 29 30 32 33 33 34 35 36 37
22 22 21 21 20 19 19 19 19 19 18 19 19 18 18 19 19 19 20 20 20 20 20 20 21 21 22 23 24 24 26 27 28 28 29 29 30 30 31 32 33 34 34 35
23 22 21 21 20 20 20 19 19 18 18 18 18 19 19 19 19 18 19 19 19 20 19 19 20 20 21 22 23 24 26 27 28 28 29 29 30 31 31 32 32 33 34 34
24 23 22 21 20 20 19 19 18 18 18 18 18 18 19 18 18 18 18 19 19 18 18 18 18 19 20 20 21 23 24 25 27 28 28 29 30 31 31 32 32 33 33 34
24 22 21 20 20 19 19 18 18 18 18 19 19 19 18 18 18 18 18 18 17 17 17 17 17 18 19 19 20 21 22 23 25 27 27 28 29 30 30 31 32 33 33 34
23 22 20 20 19 19 18 18 18 18 18 18 18 18 18 17 17 17 17 16 16 16 16 16 17 17 18 18 19 20 20 22 23 25 26 27 28 29 29 30 31 32 32 33
23 21 20 19 19 18 18 18 18 18 17 17 17 17 17 17 16 16 15 15 15 16 16 16 16 17 17 18 19 19 20 21 22 23 24 26 26 27 28 29 30 30 31 32
23 22 20 20 19 18 18 18 17 17 17 17 17 17 17 17 16 15 14 14 14 15 15 15 16 16 17 17 18 19 20 21 22 22 23 24 25 25 26 27 28 28 29 31
23 22 21 20 19 18 18 17 17 17 17 17 17 17 17 16 15 14 14 14 15 15 15 16 17 17 17 17 18 19 20 21 22 22 22 23 24 25 25 26 26 27 28 29